Regional Weather Roundup
Issued by NWS

Home | Current Version | Previous Version | Graphics & Text | Print | Product List | Glossary On
Versions: 1 2 3 4 5 6 7 8 9 10 11 12 13 14 15 16 17 18 19 20 21 22 23 24 25 26 27 28 29 30 31 32 33 34 35 36 37 38 39 40 41 42 43 44 45 46 47 48 49 50
000
ASUS45 KBOI 021910
RWRID

IDAHO REGIONAL WEATHER ROUNDUP
NATIONAL WEATHER SERVICE BOISE ID
100 PM MDT THU JUL 02 2015

NOTE: "FAIR" INDICATES FEW OR NO CLOUDS BELOW 12000 FEET
WITH NO SIGNIFICANT WEATHER AND/OR OBSTRUCTIONS TO VISIBILITY

IDZ012-014-022000-
SOUTHWEST IDAHO


CITY           SKY/WX    TMP DP  RH WIND       PRES   REMARKS
BOISE          SUNNY     93  49  22 W8G20     29.99F HX  90
CALDWELL       SUNNY     93  52  24 NW7       29.99F HX  90
MOUNTAIN HOME  SUNNY     99  28   8 W12       29.99F HX  93
$$

IDZ016-017-022000-
SOUTHCENTRAL IDAHO


CITY           SKY/WX    TMP DP  RH WIND       PRES   REMARKS
BURLEY         SUNNY     88  46  23 CALM      30.08F
JEROME         SUNNY     87  44  22 S6        30.09F
TWIN FALLS     MOSUNNY   95  44  17 W9        30.06F HX  91
$$

IDZ019>023-022000-
SOUTHEAST IDAHO


CITY           SKY/WX    TMP DP  RH WIND       PRES   REMARKS
IDAHO FALLS    SUNNY     87  52  29 N6        30.12F
POCATELLO      SUNNY     88  54  31 VRB7      30.11F
REXBURG        SUNNY     88  39  17 NE6       30.12F
$$

IDZ006-010-011-018-031-032-022000-
CENTRAL IDAHO MOUNTAINS


CITY           SKY/WX    TMP DP  RH WIND       PRES   REMARKS
MCCALL         SUNNY     86  36  16 CALM      30.15F
HAILEY         MOSUNNY   84  50  30 E8        30.18S
STANLEY          N/A     85  33  15 N8        30.26F
SALMON         SUNNY     84  43  23 N9        30.06F
CHALLIS        SUNNY     88  35  15 VRB5      30.13F
$$

IDZ002-004-006-007-026-022000-
NORTHERN IDAHO


CITY           SKY/WX    TMP DP  RH WIND       PRES   REMARKS
LEWISTON       SUNNY     94  47  20 CALM      29.96F HX  90
LOWELL           N/A     91  51  25 CALM      29.95F
COEUR D`ALENE  SUNNY     90  52  27 N5        30.02S
MULLAN PASS    SUNNY     76  42  29 CALM      30.26F
$$


USA.gov is the U.S. government's official web portal to all federal, state and local government web resources and services.